Regional Weather Roundup
Issued by NWS

Home | Current Version | Previous Version | Graphics & Text | Print | Product List | Glossary Off
Versions: 1 2 3 4 5 6 7 8 9 10 11 12 13 14 15 16 17 18 19 20 21 22 23 24 25 26 27 28 29 30 31 32 33 34 35 36 37 38 39 40 41 42 43 44 45 46 47 48 49 50

000
ASUS43 KMKX 290800
RWRWI

WISCONSIN REGIONAL WEATHER ROUNDUP
NATIONAL WEATHER SERVICE MILWAUKEE/SULLIVAN WI
300 AM CDT WED JUL 29 2015

NOTE: "FAIR" INDICATES FEW OR NO CLOUDS BELOW 12,000 FEET WITH NO
SIGNIFICANT WEATHER AND/OR OBSTRUCTIONS TO VISIBILITY.

WIZ001-002-006>008-014>016-023>028-290900-
NORTHWEST WISCONSIN

CITY           SKY/WX    TMP DP  RH WIND       PRES   REMARKS
SUPERIOR ARPT  CLEAR     67  55  66 SW12G17   29.75F
ASHLAND        PTCLDY    66  60  81 SW12      29.79F
HAYWARD        PTCLDY    68  53  58 SW7       29.86F
SIREN          CLEAR     66  54  64 SW9       29.87F
CUMBERLAND     PTCLDY    63  54  72 W9        29.89F
RICE LAKE      PTCLDY    66  57  74 W7        29.91S
CHETEK         PTCLDY    68  59  74 SW7       29.90S
LADYSMITH      MOCLDY    68  58  70 SW6       29.90F
EAU CLAIRE     NOT AVBL
MENOMONIE      PTCLDY    70  59  69 W9        29.91S
NEW RICHMOND   CLEAR     64  57  78 SW9       29.91F
OSCEOLA        CLEAR     67  57  70 SW9       29.93S
$$

WIZ003>005-009-010-017-018-290900-
NORTH CENTRAL WISCONSIN

CITY           SKY/WX    TMP DP  RH WIND       PRES   REMARKS
MANITOWISH WTR CLOUDY    71  57  61 W12G18    29.86S
ARBOR VITAE    CLOUDY    72  61  68 W9G20     29.87R
WOODRUFF       CLOUDY    72  61  68 W9G20     29.87R
RHINELANDER    CLOUDY    71  61  70 W16       29.88R
EAGLE RIVER    CLOUDY    72  71  98 SW6       29.84F
LAND O LAKES   CLOUDY    72  71  96 SW5       29.84F
PHILLIPS       PTCLDY    70  57  64 SW5       29.88S
TOMAHAWK       CLOUDY    70  59  68 W8        29.89S
MEDFORD        CLOUDY    70  60  70 W7        29.90F
MERRILL        NOT AVBL
$$

WIZ029-030-035-036-043>047-290900-
CENTRAL WISCONSIN

CITY           SKY/WX    TMP DP  RH WIND       PRES   REMARKS
WAUSAU         CLOUDY    76  64  66 NW16G28   29.87R
MOSINEE        CLOUDY    72  72 100 SW7       29.89S
MARSHFIELD     CLOUDY    73  57  57 NW8       29.91R
STEVENS POINT  CLOUDY    74  69  85 SW10      29.89S
WAUPACA        CLOUDY    74  73  96 S3        29.88S
WAUTOMA        NOT AVBL
WISC RAPIDS    CLOUDY    75  69  81 W9        29.91R
CAMP DOUGLAS   NOT AVBL
$$

WIZ011>013-019>022-031-037>040-048>050-290900-
NORTHEAST WISCONSIN

CITY           SKY/WX    TMP DP  RH WIND       PRES   REMARKS
ANTIGO         CLOUDY    72  70  95 SW8       29.88F
SHAWANO        CLOUDY    74  70  86 CALM      29.86S
OCONTO         MOCLDY    72  72 100 CALM      29.84F
STURGEON BAY   MOCLDY    72  66  83 S7        29.88F
GREEN BAY      CLOUDY    72  69  90 S5        29.86S FOG
MANITOWOC      NOT AVBL
APPLETON       CLOUDY    73  70  88 SW8       29.88S
CLINTONVILLE   CLOUDY    73  68  83 SW3       29.86S
OSHKOSH        CLOUDY    76  71  85 VRB5      29.88R
$$

WIZ032>034-041-042-053>061-290900-
SOUTHWEST WISCONSIN

CITY           SKY/WX    TMP DP  RH WIND       PRES   REMARKS
LA CROSSE      CLOUDY    75  62  64 W6        29.93R
SPARTA         CLOUDY    74  69  86 W3        29.93R
VIROQUA        CLOUDY    73  72  99 W5        29.95R
BOSCOBEL       CLOUDY    74  72  93 SW5       29.93R
PRAIRIE DU CHI CLOUDY    74  70  85 NW5       29.94R
PLATTEVILLE    CLOUDY    73  72  97 SW5       29.95S
$$

WIZ056-057-062-063-064-067-068-290900-
SOUTH CENTRAL WISCONSIN

CITY           SKY/WX    TMP DP  RH WIND       PRES   REMARKS
REEDSBURG      CLOUDY    73  71  92 W7        29.91S
BARABOO/DELLS  CLOUDY    74  68  80 W5        29.92R
LONE ROCK      CLOUDY    73  70  88 W6        29.93R
MINERAL POINT  RAIN      73  72  94 W7        29.95R
MADISON        MOCLDY    78  73  84 CALM      29.91R HX  81
MIDDLETON      MOCLDY    76  74  96 W6        29.93R
WATERTOWN      CLOUDY    73  73 100 SW3       29.91R
MONROE         CLOUDY    73  72  94 SW7       29.94S
JANESVILLE     MOCLDY    73  72  94 W3        29.92R
$$

WIZ051-052-058>065-066-070>072-290900-
SOUTHEAST WISCONSIN

CITY           SKY/WX    TMP DP  RH WIND       PRES   REMARKS
MILWAUKEE      MOCLDY    76  70  82 S3        29.90S
WAUKESHA       MOCLDY    70  68  94 CALM      29.92F
MILWAUKEE/TIMM PTCLDY    73  68  83 SE3       29.89F
RACINE         CLOUDY    77  71  82 S3        29.92S
BURLINGTON     MOCLDY    69  68  97 CALM      29.92R FOG
KENOSHA        CLOUDY    77  72  84 SW6       29.92S
FOND DU LAC    CLOUDY    75  72  90 SW7       29.89S
SHEBOYGAN      PTCLDY    69  67  93 MISG      29.88F FOG
WEST BEND      PTCLDY    70  66  88 CALM      29.90S FOG
JUNEAU         CLOUDY    73  72  95 SW6       29.92R
$$

LSZ147-162-290900-
LAKE SUPERIOR

STATION/POSITION TIME  TEMP    WIND        PRES    WAVE
                       AIR SEA DIR/SP/G            HT/PER
                 (UTC) (F)     (DEG/KT/KT) (MB)    (FT/S)
W MID LAKE BUOY  0650   69 62  240/ 16/ 19 1006.5F   2/ 3
DEVILS ISLAND    0700   74     230/ 21/ 25 1006.8F
PORT WING        0740   71     210/ 12/ 16 1008.1F
SAXON HARBOR     0700   75                 1008.8F
$$

LMZ867-665-643>646-290900-
LAKE MICHIGAN

STATION/POSITION TIME  TEMP    WIND        PRES    WAVE
                       AIR SEA DIR/SP/G            HT/PER
                 (UTC) (F)     (DEG/KT/KT) (MB)    (FT/S)
CHAMBERS ISLAND  0700   75     170/  5/  8 1010.8F
S GREEN BAY BUOY 0730   76 75  180/ 12/ 14 1012.0F
N MID LAKE BUOY  0650   72 71  180/ 10/ 12 1011.3F   1/ 3
NORTHPORT PIER   0700   73     150/  6/  9 1010.8F
SISTER BAY       0744   71     150/  8/ 12   N/A
KEWAUNEE LAKESHO 0700   63     160/  6/  7 1011.0F
SHEBOYGAN LAKESH 0700   72     200/  4/  4 1012.0F
PORT WASHINGTON  0740   71     180/  5/  5 1012.2F
ATWATER BUOY     0700   71     180/  6/  8 1013.8F
MILWAUKEE LAKESH 0700   72     170/  3/  3   N/A
KENOSHA   LAKESH 0700   78     230/  2/  5 1012.2F
$$

TC  - TEMPERATURE IN CELSIUS
VSB - VISIBILITY IN STATUTE MILES
WCI - WIND CHILL INDEX
HX  - HEAT INDEX



USA.gov is the U.S. government's official web portal to all federal, state and local government web resources and services.